Time,TemperatureF,DewpointF,PressureIn,WindDirection,WindDirectionDegrees,WindSpeedMPH,WindSpeedGustMPH,Humidity,HourlyPrecipIn,Conditions,Clouds,dailyrainin,SoftwareType,DateUTC
2013-02-13 00:05:00,13.0,11.0,29.93,WSW,237,0.0,-999.0,90,-99.99,,,0.00,weatherlink.com 1.10,2013-02-13 05:05:00,
2013-02-13 00:20:00,14.8,12.0,29.93,WSW,237,1.0,-999.0,90,-99.99,,,0.00,weatherlink.com 1.10,2013-02-13 05:20:00,
2013-02-13 00:35:00,15.4,13.0,29.93,WSW,238,0.0,-999.0,90,-99.99,,,0.00,weatherlink.com 1.10,2013-02-13 05:35:00,
2013-02-13 00:50:00,16.2,14.0,29.92,WSW,238,1.0,-999.0,90,-99.99,,,0.00,weatherlink.com 1.10,2013-02-13 05:50:00,
2013-02-13 01:05:00,15.9,14.0,29.92,WSW,237,0.0,-999.0,90,-99.99,,,0.00,weatherlink.com 1.10,2013-02-13 06:05:00,
2013-02-13 01:20:00,16.1,14.0,29.91,WSW,238,0.0,-999.0,90,-99.99,,,0.00,weatherlink.com 1.10,2013-02-13 06:20:00,
2013-02-13 01:35:00,16.8,14.0,29.90,WSW,237,2.0,-999.0,90,-99.99,,,0.00,weatherlink.com 1.10,2013-02-13 06:35:00,
2013-02-13 01:50:00,16.7,14.0,29.90,WSW,238,2.0,-999.0,90,-99.99,,,0.00,weatherlink.com 1.10,2013-02-13 06:50:00,
2013-02-13 02:05:00,16.8,14.0,29.89,WSW,238,1.0,-999.0,90,-99.99,,,0.00,weatherlink.com 1.10,2013-02-13 07:05:00,
2013-02-13 02:20:00,17.2,15.0,29.89,WSW,237,0.0,-999.0,91,-99.99,,,0.00,weatherlink.com 1.10,2013-02-13 07:20:00,
2013-02-13 02:35:00,17.9,16.0,29.88,WSW,238,2.0,-999.0,91,-99.99,,,0.00,weatherlink.com 1.10,2013-02-13 07:35:00,
2013-02-13 02:50:00,18.5,16.0,29.88,West,265,0.0,-999.0,91,-99.99,,,0.00,weatherlink.com 1.10,2013-02-13 07:50:00,
2013-02-13 03:05:00,18.4,16.0,29.88,West,265,0.0,-999.0,91,-99.99,,,0.00,weatherlink.com 1.10,2013-02-13 08:05:00,
2013-02-13 03:20:00,19.3,17.0,29.87,West,265,2.0,-999.0,91,-99.99,,,0.00,weatherlink.com 1.10,2013-02-13 08:20:00,
2013-02-13 03:35:00,20.4,18.0,29.87,WSW,248,0.0,-999.0,91,-99.99,,,0.00,weatherlink.com 1.10,2013-02-13 08:35:00,
2013-02-13 03:50:00,20.5,18.0,29.86,West,263,0.0,-999.0,91,-99.99,,,0.00,weatherlink.com 1.10,2013-02-13 08:50:00,
2013-02-13 04:05:00,20.8,19.0,29.86,West,263,0.0,-999.0,91,-99.99,,,0.00,weatherlink.com 1.10,2013-02-13 09:05:00,
2013-02-13 04:20:00,20.5,18.0,29.86,West,263,0.0,-999.0,90,-99.99,,,0.00,weatherlink.com 1.10,2013-02-13 09:20:00,
2013-02-13 04:35:00,20.9,19.0,29.85,West,263,0.0,-999.0,91,-99.99,,,0.00,weatherlink.com 1.10,2013-02-13 09:35:00,
2013-02-13 04:50:00,20.8,18.0,29.85,West,263,0.0,-999.0,90,-99.99,,,0.00,weatherlink.com 1.10,2013-02-13 09:50:00,
2013-02-13 05:05:00,20.6,18.0,29.85,West,263,1.0,-999.0,91,-99.99,,,0.00,weatherlink.com 1.10,2013-02-13 10:05:00,
2013-02-13 05:20:00,21.0,19.0,29.84,West,263,0.0,-999.0,91,-99.99,,,0.00,weatherlink.com 1.10,2013-02-13 10:20:00,
2013-02-13 05:35:00,21.8,20.0,29.84,West,263,0.0,-999.0,91,-99.99,,,0.00,weatherlink.com 1.10,2013-02-13 10:35:00,
2013-02-13 05:50:00,22.2,20.0,29.84,West,263,1.0,-999.0,91,-99.99,,,0.00,weatherlink.com 1.10,2013-02-13 10:50:00,
2013-02-13 06:05:00,23.4,22.0,29.83,West,261,1.0,-999.0,92,-99.99,,,0.00,weatherlink.com 1.10,2013-02-13 11:05:00,
2013-02-13 06:20:00,24.6,22.0,29.83,SW,218,3.0,-999.0,91,-99.99,,,0.00,weatherlink.com 1.10,2013-02-13 11:20:00,
2013-02-13 06:35:00,24.8,22.0,29.82,SW,218,4.0,-999.0,90,-99.99,,,0.00,weatherlink.com 1.10,2013-02-13 11:35:00,
2013-02-13 06:50:00,25.3,23.0,29.82,SW,218,3.0,-999.0,90,-99.99,,,0.00,weatherlink.com 1.10,2013-02-13 11:50:00,
2013-02-13 07:06:00,25.5,23.0,29.81,South,169,6.0,-999.0,90,-99.99,,,0.00,weatherlink.com 1.10,2013-02-13 12:06:00,
2013-02-13 07:21:00,25.6,23.0,29.81,SSE,156,3.0,-999.0,90,-99.99,,,0.00,weatherlink.com 1.10,2013-02-13 12:21:00,
2013-02-13 07:51:00,25.7,23.0,29.81,SSE,156,2.0,-999.0,90,-99.99,,,0.00,weatherlink.com 1.10,2013-02-13 12:51:00,
2013-02-13 08:06:00,26.1,24.0,29.81,SSE,156,2.0,-999.0,90,-99.99,,,0.00,weatherlink.com 1.10,2013-02-13 13:06:00,
2013-02-13 08:21:00,26.7,25.0,29.81,SSE,161,3.0,-999.0,91,-99.99,,,0.00,weatherlink.com 1.10,2013-02-13 13:21:00,
2013-02-13 08:36:00,26.9,24.0,29.80,SSE,160,4.0,-999.0,90,-99.99,,,0.00,weatherlink.com 1.10,2013-02-13 13:36:00,
2013-02-13 08:51:00,27.2,25.0,29.80,SSE,154,2.0,-999.0,90,-99.99,,,0.00,weatherlink.com 1.10,2013-02-13 13:51:00,
2013-02-13 09:06:00,27.2,25.0,29.79,SSE,156,2.0,-999.0,90,-99.99,,,0.00,weatherlink.com 1.10,2013-02-13 14:06:00,
2013-02-13 09:21:00,27.3,25.0,29.79,SSE,163,2.0,-999.0,90,-99.99,,,0.00,weatherlink.com 1.10,2013-02-13 14:21:00,
2013-02-13 09:36:00,27.8,25.0,29.79,SSE,164,3.0,-999.0,90,-99.99,,,0.00,weatherlink.com 1.10,2013-02-13 14:36:00,
2013-02-13 09:51:00,28.1,26.0,29.79,SSE,165,1.0,-999.0,90,-99.99,,,0.00,weatherlink.com 1.10,2013-02-13 14:51:00,
2013-02-13 10:06:00,28.3,26.0,29.79,South,173,2.0,-999.0,90,-99.99,,,0.00,weatherlink.com 1.10,2013-02-13 15:06:00,
2013-02-13 10:21:00,28.9,26.0,29.79,South,172,2.0,-999.0,90,-99.99,,,0.00,weatherlink.com 1.10,2013-02-13 15:21:00,
2013-02-13 10:36:00,29.2,27.0,29.79,South,173,2.0,-999.0,90,-99.99,,,0.00,weatherlink.com 1.10,2013-02-13 15:36:00,
2013-02-13 10:51:00,29.6,27.0,29.79,SE,142,1.0,-999.0,89,-99.99,,,0.00,weatherlink.com 1.10,2013-02-13 15:51:00,
2013-02-13 11:06:00,30.1,27.0,29.79,SE,141,0.0,-999.0,89,-99.99,,,0.00,weatherlink.com 1.10,2013-02-13 16:06:00,
2013-02-13 11:21:00,30.6,28.0,29.78,SE,142,1.0,-999.0,88,-99.99,,,0.01,weatherlink.com 1.10,2013-02-13 16:21:00,
2013-02-13 11:36:00,30.8,27.0,29.79,WNW,296,5.0,-999.0,87,-99.99,,,0.01,weatherlink.com 1.10,2013-02-13 16:36:00,
2013-02-13 11:50:00,30.8,27.0,29.78,WNW,292,1.0,-999.0,87,-99.99,,,0.01,weatherlink.com 1.10,2013-02-13 16:50:00,
2013-02-13 12:05:00,31.0,28.0,29.78,WNW,296,2.0,-999.0,87,-99.99,,,0.01,weatherlink.com 1.10,2013-02-13 17:05:00,
2013-02-13 12:20:00,31.2,28.0,29.78,NW,305,3.0,-999.0,86,-99.99,,,0.01,weatherlink.com 1.10,2013-02-13 17:20:00,
2013-02-13 12:35:00,31.3,28.0,29.77,NW,307,2.0,-999.0,86,-99.99,,,0.01,weatherlink.com 1.10,2013-02-13 17:35:00,
2013-02-13 12:50:00,31.5,28.0,29.77,NW,306,3.0,-999.0,85,-99.99,,,0.01,weatherlink.com 1.10,2013-02-13 17:50:00,
2013-02-13 13:05:00,32.3,28.0,29.76,West,277,3.0,-999.0,84,-99.99,,,0.01,weatherlink.com 1.10,2013-02-13 18:05:00,
2013-02-13 13:20:00,33.0,28.0,29.75,NW,304,4.0,-999.0,82,-99.99,,,0.01,weatherlink.com 1.10,2013-02-13 18:20:00,
2013-02-13 13:35:00,32.8,27.0,29.75,NW,319,3.0,-999.0,80,-99.99,,,0.01,weatherlink.com 1.10,2013-02-13 18:35:00,
2013-02-13 13:50:00,32.6,27.0,29.75,NW,316,2.0,-999.0,80,-99.99,,,0.01,weatherlink.com 1.10,2013-02-13 18:50:00,
2013-02-13 14:05:00,33.1,27.0,29.76,NW,309,4.0,-999.0,78,-99.99,,,0.01,weatherlink.com 1.10,2013-02-13 19:05:00,
2013-02-13 14:21:00,33.2,27.0,29.75,WNW,302,3.0,-999.0,77,-99.99,,,0.02,weatherlink.com 1.10,2013-02-13 19:21:00,
2013-02-13 14:36:00,33.8,26.0,29.75,NW,311,4.0,-999.0,73,-99.99,,,0.02,weatherlink.com 1.10,2013-02-13 19:36:00,
2013-02-13 14:51:00,34.5,26.0,29.75,WNW,303,2.0,-999.0,71,-99.99,,,0.02,weatherlink.com 1.10,2013-02-13 19:51:00,
2013-02-13 15:06:00,35.7,26.0,29.75,WNW,303,0.0,-999.0,69,-99.99,,,0.02,weatherlink.com 1.10,2013-02-13 20:06:00,
2013-02-13 15:21:00,34.7,26.0,29.75,WSW,246,3.0,-999.0,70,-99.99,,,0.02,weatherlink.com 1.10,2013-02-13 20:21:00,
2013-02-13 15:36:00,34.8,26.0,29.75,WSW,246,1.0,-999.0,70,-99.99,,,0.02,weatherlink.com 1.10,2013-02-13 20:36:00,
2013-02-13 15:51:00,34.8,26.0,29.75,WSW,246,2.0,-999.0,70,-99.99,,,0.02,weatherlink.com 1.10,2013-02-13 20:51:00,
2013-02-13 16:06:00,34.1,26.0,29.76,WSW,246,1.0,-999.0,71,-99.99,,,0.02,weatherlink.com 1.10,2013-02-13 21:06:00,
2013-02-13 16:21:00,34.6,26.0,29.76,WSW,246,3.0,-999.0,72,-99.99,,,0.02,weatherlink.com 1.10,2013-02-13 21:21:00,
2013-02-13 16:36:00,35.0,26.0,29.75,WSW,246,0.0,-999.0,69,-99.99,,,0.02,weatherlink.com 1.10,2013-02-13 21:36:00,
2013-02-13 16:51:00,31.2,24.0,29.76,WSW,246,0.0,-999.0,74,-99.99,,,0.02,weatherlink.com 1.10,2013-02-13 21:51:00,
2013-02-13 17:06:00,30.5,24.0,29.76,WSW,246,0.0,-999.0,77,-99.99,,,0.02,weatherlink.com 1.10,2013-02-13 22:06:00,
2013-02-13 17:21:00,29.7,24.0,29.76,WSW,246,0.0,-999.0,79,-99.99,,,0.02,weatherlink.com 1.10,2013-02-13 22:21:00,
2013-02-13 17:36:00,29.5,24.0,29.76,WSW,246,0.0,-999.0,79,-99.99,,,0.02,weatherlink.com 1.10,2013-02-13 22:36:00,
2013-02-13 17:51:00,29.0,24.0,29.76,WSW,246,0.0,-999.0,81,-99.99,,,0.02,weatherlink.com 1.10,2013-02-13 22:51:00,
2013-02-13 18:06:00,27.1,22.0,29.77,WSW,246,0.0,-999.0,81,-99.99,,,0.02,weatherlink.com 1.10,2013-02-13 23:06:00,
2013-02-13 18:21:00,25.2,21.0,29.77,WSW,246,0.0,-999.0,84,-99.99,,,0.02,weatherlink.com 1.10,2013-02-13 23:21:00,
2013-02-13 18:36:00,23.1,19.0,29.78,WSW,246,0.0,-999.0,84,-99.99,,,0.02,weatherlink.com 1.10,2013-02-13 23:36:00,
2013-02-13 18:51:00,22.1,19.0,29.78,WSW,246,0.0,-999.0,87,-99.99,,,0.02,weatherlink.com 1.10,2013-02-13 23:51:00,
2013-02-13 19:06:00,21.8,19.0,29.78,WSW,246,0.0,-999.0,87,-99.99,,,0.02,weatherlink.com 1.10,2013-02-14 00:06:00,
2013-02-13 19:21:00,21.5,19.0,29.79,WSW,246,0.0,-999.0,89,-99.99,,,0.02,weatherlink.com 1.10,2013-02-14 00:21:00,
2013-02-13 19:36:00,19.4,17.0,29.79,WSW,246,0.0,-999.0,89,-99.99,,,0.02,weatherlink.com 1.10,2013-02-14 00:36:00,
2013-02-13 19:51:00,19.1,17.0,29.80,WSW,246,2.0,-999.0,90,-99.99,,,0.02,weatherlink.com 1.10,2013-02-14 00:51:00,
2013-02-13 20:06:00,18.6,16.0,29.80,WSW,246,0.0,-999.0,90,-99.99,,,0.02,weatherlink.com 1.10,2013-02-14 01:06:00,
2013-02-13 20:21:00,18.1,16.0,29.80,WSW,246,0.0,-999.0,90,-99.99,,,0.02,weatherlink.com 1.10,2013-02-14 01:21:00,
2013-02-13 20:36:00,19.4,17.0,29.80,WSW,246,0.0,-999.0,91,-99.99,,,0.02,weatherlink.com 1.10,2013-02-14 01:36:00,
2013-02-13 20:51:00,18.2,16.0,29.80,WSW,246,0.0,-999.0,90,-99.99,,,0.02,weatherlink.com 1.10,2013-02-14 01:51:00,
2013-02-13 21:06:00,16.6,14.0,29.80,WSW,246,0.0,-999.0,90,-99.99,,,0.02,weatherlink.com 1.10,2013-02-14 02:06:00,
2013-02-13 21:21:00,19.1,17.0,29.80,WSW,246,0.0,-999.0,92,-99.99,,,0.02,weatherlink.com 1.10,2013-02-14 02:21:00,
2013-02-13 21:36:00,21.4,20.0,29.80,WSW,246,0.0,-999.0,92,-99.99,,,0.02,weatherlink.com 1.10,2013-02-14 02:36:00,
2013-02-13 21:51:00,23.1,23.0,29.80,WSW,246,1.0,-999.0,100,-99.99,,,0.02,weatherlink.com 1.10,2013-02-14 02:51:00,
2013-02-13 22:06:00,24.1,22.0,29.79,NW,325,0.0,-999.0,92,-99.99,,,0.02,weatherlink.com 1.10,2013-02-14 03:06:00,
2013-02-13 22:21:00,24.3,23.0,29.79,NW,325,0.0,-999.0,93,-99.99,,,0.02,weatherlink.com 1.10,2013-02-14 03:21:00,
2013-02-13 22:36:00,24.7,23.0,29.80,NW,325,1.0,-999.0,93,-99.99,,,0.02,weatherlink.com 1.10,2013-02-14 03:36:00,
2013-02-13 22:51:00,25.4,24.0,29.79,NNW,329,3.0,-999.0,93,-99.99,,,0.02,weatherlink.com 1.10,2013-02-14 03:51:00,
2013-02-13 23:07:00,26.5,25.0,29.79,NNE,21,1.0,-999.0,93,-99.99,,,0.02,weatherlink.com 1.10,2013-02-14 04:07:00,
2013-02-13 23:22:00,26.7,25.0,29.78,NNE,21,0.0,-999.0,93,-99.99,,,0.02,weatherlink.com 1.10,2013-02-14 04:22:00,
2013-02-13 23:37:00,27.5,26.0,29.78,NNE,21,0.0,-999.0,93,-99.99,,,0.02,weatherlink.com 1.10,2013-02-14 04:37:00,